Starlink 5339

operational
NORAD ID: 56510 Int'l Des: 2023-065 Owner: SPXS Country: US Constellation: starlink
LEOCIRCULAR

关于 Starlink 5339

正在加载描述...

实时位置

正在加载3D地球...

即将过境

高度历史

Altitude vs Time

uPlot chart will show altitude changes over time

两行轨道根数

1 56510U 23065H 25259.92704846 -.00000413 00000-0 -15480-4 0 9998
2 56510 43.0035 74.7528 0001295 267.9889 92.0805 15.02532000130481
Epoch: Sep 16, 2025 • Age: 25 hours

当前状态

高度 563.5 km
速度 7.58 km/s
星下点 -21.46°S, 52.56°E
发射日期 May 14, 2023
运行时间 2.3 years
类型 internet

技术详情

分类 Payload
质量 305.00 kg
干质量 290.00 kg
总质量 305.00 kg
长度 0.20 m
直径 2.80 m
跨度 9.00 m
形状 Box + pan
制造商 SPXS
平台类型 Starlink
阶段状态 In Orbit
所有者/国家 SPXS/US

大型星座

Loading constellations...